{"data":{"norad_id":51121,"intl_designator":"2022-005T","name":"STARLINK-3399","alt_names":[],"object_type":"PAYLOAD","status":"ACTIVE","operator":null,"country":"US","launch_date":"2022-01-19","launch_site_code":"AFETR","launch_vehicle":null,"mission":null,"orbit_class":"UNKNOWN","rcs_meters":null,"size_class":null,"mass_kg":null,"dimensions":null,"purposes":["comms"],"wikipedia_slug":null,"has_3d_model":false,"image_url":null,"decayed_at":null,"tle_current":{"epoch":"2026-09-20T03:38:02.617152Z","epoch_age_seconds":78567,"freshness":"FRESH","line1":"1 51121U 22005T   26263.15141918  .00000433  00000+0  45294-4 0  9995","line2":"2 51121  53.1612 135.4968 0001731  88.9267 271.1923 15.08829097258232","mean_motion":15.08829097,"eccentricity":0.0001731,"inclination_deg":53.1612,"raan_deg":135.4968,"arg_perigee_deg":88.9267,"mean_anomaly_deg":271.1923,"bstar":4.5294e-5,"rev_number":25823,"period_min":95.438244322246,"perigee_km":538.57922440986,"apogee_km":540.97420613809,"semimajor_km":6917.913715274,"source":"CELESTRAK","updated_at":"2026-09-20T09:00:39.587070Z"}}}